Home   Weather   Palestine   Past weeks

Flag for USA Past Weather in Palestine, Texas, USA — Yesterday and Last 2 Weeks

51 °F


Feels Like: 50 °F
Forecast: 48 / 74 °F
Wind: 3 mph from Southeast

Location: Palestine Municipal Airport

Current Time: Oct 22, 2016 at 6:59:33 AM

Latest Report: Oct 22, 2016 at 6:15 AM

Visibility: 10 mi

Pressure: 30.19 "Hg

Humidity: 79%

Dew Point: 44 °F

Location of PalestineLocation

Past Weather in Palestine — Graph


Palestine Temperature Yesterday

Maximum temperature yesterday: 72 °F (at 4:15 PM)
Minimum temperature yesterday: 47 °F (at 6:15 AM)
Average temperature yesterday: 58 °F

High & Low Weather Summary for the Past Weeks

High89 °F (Oct 18, 4:15 PM)100% (Oct 7, 5:15 AM)30.33 "Hg (Oct 7, 5:15 AM)
Low47 °F (Oct 21, 6:15 AM)26% (Oct 9, 4:15 PM)29.79 "Hg (Oct 17, 5:35 PM)
Average72 °F77%30.09 "Hg
* Reported Oct 7 5:15 AM — Oct 22 5:15 AM, Palestine, Weather by CustomWeather, © 2016

Note: Actual official high and low records may vary slightly from our data, if they occured in-between our weather recording intervals... More about our weather records


Palestine Weather History for the Previous 24 Hours

Scroll right to see more
Time TempWeatherWind HumidityBarometerVisibility
5:15 AM
Sat, Oct 22
49 °FClear.No wind90%30.19 "Hg10 mi
4:55 AM47 °FClear.No wind96%30.19 "Hg10 mi
4:35 AM47 °FClear.No wind95%30.19 "Hg10 mi
4:15 AM47 °FClear.No wind95%30.19 "Hg10 mi
3:55 AM47 °FClear.No wind97%30.19 "Hg7 mi
3:35 AM48 °FClear.No wind96%30.19 "Hg10 mi
3:15 AM47 °FClear.No wind97%30.19 "Hg10 mi
2:55 AM47 °FClear.No wind99%30.19 "Hg7 mi
2:35 AM47 °FClear.No wind99%30.19 "Hg10 mi
1:55 AM48 °FFog.No wind97%30.19 "Hg1 mi
1:35 AM49 °FClear.No wind99%30.18 "Hg7 mi
1:15 AM48 °FClear.No wind97%30.18 "Hg10 mi
12:55 AM49 °FClear.No wind98%30.18 "Hg10 mi
12:35 AM50 °FClear.No wind96%30.19 "Hg10 mi
12:15 AM49 °FClear.No wind97%30.19 "Hg10 mi
11:55 PM
Fri, Oct 21
50 °FClear.No wind95%30.20 "Hg10 mi
11:35 PM50 °FClear.No wind97%30.20 "Hg10 mi
11:15 PM51 °FClear.No wind97%30.20 "Hg10 mi
10:55 PM51 °FClear.No wind97%30.20 "Hg10 mi
10:35 PM52 °FClear.No wind94%30.19 "Hg10 mi
10:15 PM51 °FClear.No wind95%30.19 "Hg10 mi
9:55 PM52 °FClear.No wind94%30.19 "Hg10 mi
9:15 PM53 °FClear.5 mph91%30.18 "Hg10 mi
8:55 PM54 °FClear.No wind92%30.18 "Hg10 mi
8:35 PM54 °FClear.No wind92%30.18 "Hg10 mi
8:15 PM55 °FClear.No wind90%30.18 "Hg10 mi
7:55 PM57 °FClear.No wind86%30.18 "Hg10 mi
7:15 PM60 °FClear.No wind81%30.18 "Hg10 mi
6:55 PM62 °FClear.No wind71%30.17 "Hg10 mi
6:35 PM67 °FSunny.No wind52%30.18 "Hg10 mi
6:15 PM69 °FSunny.No wind43%30.18 "Hg10 mi
5:55 PM70 °FSunny.No wind39%30.17 "Hg10 mi
5:15 PM71 °FSunny.No wind36%30.17 "Hg10 mi
4:55 PM71 °FSunny.No wind36%30.18 "Hg10 mi
4:35 PM72 °FSunny.7 mph37%30.18 "Hg10 mi
4:15 PM72 °FSunny.8 mph37%30.17 "Hg10 mi
3:55 PM71 °FSunny.No wind36%30.19 "Hg10 mi
3:35 PM71 °FSunny.No wind37%30.19 "Hg10 mi
3:15 PM72 °FSunny.6 mph38%30.20 "Hg10 mi
2:55 PM71 °FSunny.No wind40%30.20 "Hg10 mi
2:35 PM70 °FSunny.3 mph41%30.21 "Hg10 mi
2:15 PM71 °FSunny.6 mph42%30.21 "Hg10 mi
1:55 PM69 °FSunny.No wind43%30.23 "Hg10 mi
1:15 PM69 °FSunny.8 mph44%30.25 "Hg10 mi
12:55 PM69 °FSunny.9 mph43%30.26 "Hg10 mi
12:35 PM68 °FSunny.7 mph45%30.28 "Hg10 mi
12:15 PM67 °FSunny.5 mph47%30.28 "Hg10 mi
11:55 AM67 °FSunny.3 mph47%30.29 "Hg10 mi
11:35 AM66 °FSunny.5 mph49%30.29 "Hg10 mi
11:15 AM65 °FSunny.6 mph54%30.29 "Hg10 mi
10:55 AM64 °FSunny.6 mph59%30.29 "Hg10 mi
10:35 AM63 °FSunny.3 mph63%30.29 "Hg10 mi
10:15 AM62 °FSunny.6 mph69%30.30 "Hg10 mi
9:55 AM60 °FSunny.5 mph76%30.30 "Hg10 mi
9:15 AM56 °FSunny.No wind88%30.30 "Hg10 mi
8:55 AM53 °FSunny.No wind94%30.30 "Hg10 mi
8:15 AM49 °FSunny.No wind96%30.28 "Hg10 mi
7:55 AM47 °FSunny.3 mph97%30.28 "Hg10 mi
7:15 AM49 °FClear.3 mph95%30.26 "Hg10 mi
6:55 AM48 °FClear.No wind97%30.27 "Hg10 mi
6:15 AM47 °FClear.No wind98%30.26 "Hg10 mi
Weather by CustomWeather, © 2016

See weather overviewHow to use our weather pages